Location: Sungai Igah
(2.7333°N, 114.2500°E)
Time: 11:49:57
(UTC+00:00)

Atlas Centaur 2 - Pass Details

Date: 14 June 2021
Orbit: 459 x 1308 km, 30.4° (Epoch: 04 August)

Event Time Altitude Azimuth Distance (km) Brightness Sun altitude
Rises 12:54:22 0° 323° (NW) 2,738 5.8 -32.9°
Reaches altitude 10° 12:56:44 10° 336° (NNW) 1,950 4.7 -33.4°
Enters shadow 12:57:57 17° 348° (NNW) 1,621 4.1 -33.6°
